Back to catalog

COSMOS 2251 DEB

AliveLEO
NORAD 34965·DEBRIS·🇷🇺 Russia

Launched Jun 16, 1993 from Plesetsk Cosmodrome

Loading…

Next Passes (next 24 hours)

TLE

FreshSource: Space-Track

Epoch: Sep 14, 2026, 04:41 UTC

1 34965U 93036AEU 26257.19575448  .00000498  00000-0  13735-3 0  9996
2 34965  74.0532 332.5268 0025208  26.1481 334.0945 14.49230044911031

Track COSMOS 2251 DEB in real time with AllMySat

Download on the App Store